Location: Unspecified
(50.1700°N, 6.8600°E)
Time: 05:50:26
(UTC+00:00)

SJ-12 - Pass Details

Date: 24 January 2019
Orbit: 569 x 586 km, 97.6° (Epoch: 21 February)

Event Time Altitude Azimuth Distance (km) Brightness Sun altitude
Rises 05:49:15 0° 7° (N) 2,818 7.4 -13.9°
Reaches altitude 10° 05:51:31 10° 360° (N) 1,911 6.4 -13.6°
Maximum altitude 05:55:21 38° 292° (WNW) 892 4.4 -13.0°
Drops below altitude 10° 05:59:09 10° 224° (SW) 1,887 6.3 -12.4°
Sets 06:01:23 0° 216° (SW) 2,777 7.2 -12.1°
